星链-30225 (STARLINK-30225 )

导读

STARLINK-30225是美国太空探索技术公司SpaceX旗下星链计划的第二代商用通信卫星,由西雅图工厂制造,于2023年7月24日从美国空军东部试验场由猎鹰9火箭发射入轨。该卫星重约730公斤,运行在近地轨道,轨道倾角43度,近地点约560公里、远地点约562公里,轨道周期约96分钟,主要为全球提供商业互联网通信服务。

Basic Information
目录编号:
57449
目录名称:
STARLINK-30225
国际标识:
2023-105V
轨道中心:
EARTH
卫星名称:
星链-30225
卫星全名:
星链-30225 (STARLINK-30225 )
卫星状态:
在轨 (已飞行1138 天)
发射日期:
2023-07-24 UTC
国别 :
美国 (US)
星等 :
--
Orbit Information
数据来源 国际轨道数据
星历时间: 2026-09-04T01:44:39+0800
1天前
查看轨道信息
半长轴: 6861.103km
偏心率: 0.0001463
轨道倾角: 43.002°
近地点辐角 264.106°
升交点赤经 337.605°
平近点角 95.962°
近地点: 481.962km
远地点: 483.97km
周期: 94.265分钟
每日圈数: 15.276079
Detailed Information
固有亮度:
5
最大亮度:
0.3
卫星平台:
Starlink v2.0 mini
覆盖范围:
全球
运营商:
太空探索技术公司
运营商所在国:
美国
制造商(研发单位):
太空探索技术公司
制造商所在国:
美国
使用方式:
暂无
Satellite Introduction
星链(Starlink)计划是由太空探索技术公司(SpaceX)提出的一个巨型低轨卫星互联网星座项目,计划在2019年至2024年间在太空搭建由约1.2万颗卫星组成的“星链”网络,其中1584颗将部署在地球上空550千米处的近地轨道,并从2020年开始工作。该卫星仍在工作。
2D Orbit Map
3D Orbit Map
Orbit Altitude Analysis Chart
Orbit Inclination Analysis Chart
Orbit Comprehensive Analysis Chart
View Comprehensive Chart
Conjunction Data List
Event ID Objects TCA Miss Dist (km) Collision Risk Probability Collision Risk Index (CRI) Action
CDM_260907-060205-744905-781921
2026-09-07T
06:02:36+0000
0.908 km
远距离
1.13798E-5 中风险 0.56
CDM_260907-042805-744905-781921
2026-09-07T
04:28:27+0000
1.021 km
极远距离
7.605038E-6 低风险 0.53
CDM_260905-153905-744906-307821
2026-09-05T
15:39:21+0000
1.269 km
极远距离
7.418276E-6 低风险 0.52
CDM_260907-025405-744905-781921
2026-09-07T
02:54:18+0000
2.924 km
极远距离
5.379874E-7 极低风险 0.3